#timestamp,LO_Frequency,Hit 
1503615615.2,286047002.5,N
1503615635.1,286047002.1,N
1503615636.0,286047002.1,N
1503615655.8,286047003.8,N
1503615675.6,286047004.1,N
1503615695.5,286047003.6,N
1503615715.3,286047002.1,N
1503615735.1,286047004.0,N
1503615755.9,286047007.3,P
1503615775.7,286047005.6,N
1503615795.5,286047003.6,N
1503615815.4,286047004.4,N
1503615835.2,286047001.8,N
1503615855.0,286046999.7,N
1503615855.9,286046999.7,N
1503615875.8,286046999.8,N
1503615895.6,286047002.1,N
1503615915.4,286047000.3,N
1503615935.2,286046997.0,N
1503615955.1,286046998.6,N
1503615956.0,286046998.6,N
1503615975.8,286047001.0,N
1503615995.6,286046998.2,N
1503616015.5,286046999.3,N
1503616035.3,286046999.6,N
1503616055.1,286047000.6,N
1503616075.9,286047002.1,N
1503616095.7,286047002.3,N
1503616115.5,286047001.6,N
1503616135.4,286047002.0,N
1503616155.2,286047001.7,N
1503616175.0,286047002.7,N
1503616175.9,286047002.7,N
1503616195.8,286047001.0,N
1503616215.6,286046998.3,N
1503616235.4,286047000.8,N
1503616255.3,286046999.1,N
1503616275.1,286046997.8,N
1503616276.0,286046997.8,N
1503616295.8,286046996.0,N
1503616315.7,286046992.5,P
1503616335.5,286046994.1,N
1503616355.3,286046993.4,N
1503616375.2,286046993.3,N
1503616395.9,286046997.0,N
1503616415.7,286047000.6,N
1503616435.6,286047001.4,N
1503616455.4,286046999.9,N
1503616475.2,286047002.1,N
1503616495.0,286047006.0,N
1503616495.9,286047006.0,N
1503616515.8,286047003.5,N
1503616535.6,286047007.6,N
1503616555.4,286047006.3,N
1503616575.3,286047006.3,N
1503616595.1,286047006.8,N
1503616615.8,286047007.0,N
1503616635.7,286047009.0,N
1503616655.5,286047008.0,N
1503616675.3,286047010.2,N
1503616695.2,286047007.0,N
1503616715.9,286047008.9,N
1503616735.7,286047007.9,N
1503616755.6,286047010.2,N
1503616775.4,286047006.7,N
1503616795.2,286047005.4,N
1503616815.0,286047003.6,N
1503616815.9,286047003.6,N
1503616835.8,286047004.9,N
1503616855.6,286047005.1,N
1503616875.4,286047003.8,N
1503616895.3,286047003.7,N
1503616915.1,286047003.5,N
1503616935.8,286047005.7,N
1503616955.7,286047005.6,N
1503616975.5,286047005.4,N
1503616995.3,286047005.1,N
1503617015.2,286047004.3,N
1503617035.9,286047004.1,N
1503617055.7,286047002.3,N
1503617075.6,286047001.7,N
1503617095.4,286047004.1,N
1503617115.2,286047004.1,N
1503617135.0,286047001.3,N
1503617135.9,286047001.3,N
1503617155.8,286047003.1,N
1503617175.6,286047005.6,N
1503617195.4,286047003.7,N
1503617215.3,286047007.4,P
1503617235.1,286047002.4,N
1503617255.8,286047002.1,N
1503617275.7,286047002.8,N
1503617295.5,286047001.0,N
1503617315.3,286047000.3,N
1503617335.2,286047000.5,N
1503617355.9,286047002.8,N
1503617375.7,286047000.3,N
1503617395.6,286047001.7,N
1503617415.4,286047001.7,N
1503617435.2,286047003.4,N
1503617455.1,286047003.4,N
1503617456.0,286047003.4,N
1503617475.8,286047003.1,N
1503617495.6,286047003.8,N
1503617515.5,286047003.5,N
1503617535.3,286047005.5,P
1503617555.1,286047002.4,N
1503617575.9,286046999.9,N
1503617595.7,286046998.4,N
1503617615.5,286047000.7,N
1503617635.4,286046999.9,N
1503617655.2,286047002.5,N
1503617675.0,286047001.5,N
1503617675.9,286047001.5,N
1503617695.7,286047001.7,N
1503617715.6,286047004.2,N
1503617735.4,286047003.5,N
1503617755.2,286047003.8,N
1503617775.1,286047004.9,N
1503617776.0,286047004.9,N
1503617795.8,286047007.3,P
1503617815.6,286047005.1,N
1503617835.5,286047004.7,N
1503617855.3,286047006.5,P
1503617875.1,286047003.3,P
1503617895.9,286047007.2,P
1503617915.7,286047008.6,P
1503617935.6,286047004.3,N
1503617955.4,286047005.1,N
1503617975.2,286047007.0,P
1503617995.1,286047000.2,N
1503617996.0,286047000.2,N
1503618015.8,286047000.5,N
1503618035.6,286047002.8,N
1503618055.5,286046998.8,N
1503618075.3,286046999.2,N
1503618095.1,286046999.6,N
1503618115.8,286046996.9,N
1503618135.7,286047001.1,N
1503618155.5,286047000.8,N
1503618175.3,286047000.6,N
1503618195.2,286047001.1,N
1503618215.9,286046999.2,N
1503618235.7,286046999.3,N
1503618255.6,286047000.7,N
1503618275.4,286046999.9,N
1503618295.2,286047001.6,N
1503618315.1,286047003.7,N
1503618316.0,286047003.7,N
1503618335.8,286047002.9,N
1503618355.6,286047003.7,N
1503618375.5,286047003.0,N
1503618395.3,286047004.0,N
1503618415.1,286047000.7,N
1503618435.8,286047001.6,N
1503618455.7,286047003.8,N
1503618475.5,286047004.8,N
1503618495.3,286047005.1,N
1503618515.2,286047005.6,N
1503618535.9,286047002.9,N
1503618555.7,286047003.2,N
1503618575.6,286047002.9,N
1503618595.4,286047007.6,P
1503618615.2,286047003.3,N
1503618635.1,286047001.4,N
1503618636.0,286047001.4,N
1503618655.8,286047003.7,N
1503618675.6,286047005.7,N
1503618695.5,286047004.6,N
1503618715.3,286047007.0,P
1503618735.1,286047001.3,N
1503618755.9,286047001.8,N
1503618775.7,286047004.3,N
1503618795.5,286047004.2,N
1503618815.4,286047004.0,N
1503618835.2,286047001.7,N
1503618855.0,286047001.3,N
1503618855.9,286047001.3,N
1503618875.8,286047003.2,N
1503618895.6,286047002.9,N
1503618915.4,286047004.2,N
1503618935.2,286047000.2,N
1503618955.1,286047000.3,N
1503618956.0,286047000.3,N
1503618975.8,286047001.0,N
1503618995.6,286047002.6,N
1503619015.5,286047004.4,N
1503619035.3,286047003.9,N
1503619055.1,286047003.6,N
1503619075.9,286047004.1,N
1503619095.7,286047003.3,N
1503619115.5,286047003.1,N
1503619135.4,286047003.0,N
1503619155.2,286047005.0,P
1503619175.0,286046998.3,N
1503619175.9,286046998.3,N
1503619195.8,286046996.7,N
